Location: Linz
(48.3300°N, 14.3000°E)
Time: 11:04:25
(UTC+02:00)

Vanguard 2 Rocket - All Passes

Search period start: 16 July 2018 00:00
Search period end: 26 July 2018 00:00
Orbit: 553 x 3327 km, 32.9° (Epoch: 15 July)

Date Brightness Start Highest point End Pass type
(mag) Time Alt. Az. Time Alt. Az. Time Alt. Az.
16 Jul - 03:23:49 10° S 03:28:02 15° SE 03:33:26 10° ESE visible
16 Jul - 05:32:09 10° SW 05:40:07 34° SSE 05:52:48 10° ESE daylight
16 Jul - 07:43:43 10° WSW 07:54:13 40° S 08:10:10 10° SE daylight
16 Jul - 09:57:33 10° WSW 10:09:21 29° SSW 10:24:30 10° SSE daylight
16 Jul - 12:18:33 10° WSW 12:24:02 12° SW 12:29:49 10° SSW daylight
17 Jul - 04:33:59 10° SSW 04:40:32 27° SSE 04:50:33 10° ESE visible
17 Jul - 06:44:41 10° WSW 06:53:49 39° S 07:08:21 10° ESE daylight
17 Jul - 08:57:31 10° WSW 09:08:35 33° SSW 09:24:00 10° SE daylight
17 Jul - 11:14:21 10° WSW 11:23:30 17° SW 11:33:57 10° S daylight
18 Jul - 03:36:22 10° S 03:41:20 19° SSE 03:48:13 10° ESE visible
18 Jul - 05:45:59 10° SW 05:53:48 35° S 06:06:22 10° ESE daylight
18 Jul - 07:57:59 10° WSW 08:07:58 35° S 08:22:54 10° SE daylight
18 Jul - 10:12:46 10° WSW 10:22:52 22° SSW 10:35:24 10° S daylight
19 Jul - 02:40:12 10° SSE 02:42:26 12° SE 02:44:59 10° ESE visible
19 Jul - 04:47:37 10° SW 04:54:08 30° SSE 05:04:22 10° ESE daylight
19 Jul - 06:58:50 10° WSW 07:07:37 35° S 07:21:23 10° SE daylight
19 Jul - 09:12:18 10° WSW 09:22:15 26° SSW 09:35:38 10° SSE daylight
20 Jul - 03:49:37 10° SSW 03:54:50 23° SSE 04:02:26 10° ESE visible
20 Jul - 06:00:01 10° WSW 06:07:35 34° S 06:19:41 10° ESE daylight
20 Jul - 08:12:31 10° WSW 08:21:45 29° SSW 08:35:05 10° SSE daylight
20 Jul - 10:29:27 10° WSW 10:36:24 14° SW 10:44:26 10° S daylight
21 Jul - 02:52:18 10° S 02:55:49 15° SSE 03:00:21 10° ESE visible
21 Jul - 05:01:30 10° SW 05:07:53 31° S 05:17:57 10° ESE daylight
21 Jul - 07:13:13 10° WSW 07:21:29 30° S 07:34:01 10° SE daylight
21 Jul - 09:27:52 10° WSW 09:35:56 18° SSW 09:46:08 10° S daylight
22 Jul - 04:03:17 10° SW 04:08:31 25° SSE 04:16:19 10° ESE visible
22 Jul - 06:14:16 10° WSW 06:21:28 30° S 06:32:42 10° SE daylight
22 Jul - 08:27:33 10° WSW 08:35:34 22° SSW 08:46:28 10° SSE daylight
23 Jul - 03:05:28 10° SSW 03:09:25 19° SSE 03:14:45 10° ESE visible
23 Jul - 05:15:37 10° SW 05:21:45 29° S 05:31:17 10° SE daylight
23 Jul - 07:27:55 10° WSW 07:35:22 24° SSW 07:46:04 10° SSE daylight
23 Jul - 09:46:07 10° SW 09:49:39 11° SSW 09:53:32 10° SSW daylight
24 Jul - 02:08:36 10° S 02:10:32 12° SSE 02:12:43 10° SE visible
24 Jul - 04:17:13 10° SW 04:22:20 25° S 04:29:57 10° ESE visible
24 Jul - 06:28:47 10° WSW 06:35:25 25° S 06:45:15 10° SE daylight
24 Jul - 08:43:45 10° SW 08:49:24 14° SSW 08:56:20 10° S daylight
25 Jul - 03:19:07 10° SSW 03:23:09 20° SSE 03:28:44 10° ESE visible
25 Jul - 05:29:58 10° SW 05:35:42 25° S 05:44:16 10° SE daylight
25 Jul - 07:43:21 10° WSW 07:49:18 17° SSW 07:57:07 10° SSE daylight
